Regional Weather Roundup
Issued by NWS Green Bay, WI

Home | Current Version | Previous Version | Text Only | Print | Product List | Glossary On
Versions: 1 2 3 4 5 6 7 8 9 10 11 12 13 14 15 16 17 18 19 20 21 22 23 24 25 26 27 28 29 30 31 32 33 34 35 36 37 38 39 40 41 42 43 44 45 46 47 48 49 50
000
ASUS43 KGRB 040910
RWRGRB

NORTH-CENTRAL AND NORTHEAST WISCONSIN REGIONAL WEATHER ROUNDUP
NATIONAL WEATHER SERVICE GREEN BAY WI
300 AM CST WED MAR 04 2015

WIZ005-009-010>012-018-019-041000-
NORTH CENTRAL WISCONSIN

CITY           SKY/WX    TMP DP  RH WIND       PRES   REMARKS
IRONWOOD       PTCLDY     1  -4  78 W15G23    29.85R WCI -18
MANITOWISH WTR CLEAR      0  -7  71 W9        29.83S WCI -15
ARBOR VITAE    PTCLDY     4  -5  66 NW5       29.83R WCI  -5
EAGLE RIVER    CLEAR      3  -6  64 W12G21    29.81R WCI -13
LAND O LAKES     N/A      4  -2  76 W7        29.80R WCI  -8
RHINELANDER    PTCLDY     4  -5  66 W13       29.83R WCI -13
PHILLIPS       CLEAR      1  -7  68 W7        29.88R WCI -11
ANTIGO         CLEAR      6  -1  71 NW16G23   29.83R WCI -12
TOMAHAWK       PTCLDY     4  -3  71 W9        29.86R WCI -10
MERRILL        MOCLDY     8  -1  67 W5        29.87R WCI  -1
$$

WIZ013-073-041000-
NORTHEAST WISCONSIN

CITY           SKY/WX    TMP DP  RH WIND       PRES   REMARKS
IRON MOUNTAIN  CLEAR     10  -2  58 NW16G22   29.78R WCI  -7
MARINETTE      CLEAR     16   1  53 NW13G18   29.83R WCI   2
OCONTO         CLEAR     15   4  61 NW9       29.86R WCI   3
$$

WIZ017-030-035>037-045-041000-
CENTRAL WISCONSIN

CITY           SKY/WX    TMP DP  RH WIND       PRES   REMARKS
MEDFORD        CLEAR      3  -6  66 W13       29.88S WCI -14
WAUSAU         CLEAR      8  -1  66 NW13      29.87R WCI  -8
MOSINEE        CLEAR      9   1  72 W14G21    29.89S WCI  -8
MARSHFIELD     CLEAR      6  -4  63 W13       29.92R WCI -10
WISC RAPIDS    CLEAR      9  -1  64 NW15G23   29.95R WCI  -8
STEVENS POINT  CLEAR      8  -1  68 W9        29.92R WCI  -6
WAUPACA        CLEAR     15   4  62 W9G18     29.92R WCI   3
SHAWANO        CLEAR     16   2  53 NW14      29.88R WCI   2
CLINTONVILLE   CLEAR     16   5  62 W10       29.88R WCI   3
$$

WIZ038-039-048-051-041000-
FOX VALLEY

CITY           SKY/WX    TMP DP  RH WIND       PRES   REMARKS
NWS GREEN BAY  CLEAR     15   5  64 W7        29.87R WCI   5
APPLETON       CLEAR     14   5  67 W17       29.88R WCI  -3
OSHKOSH        CLEAR     16   6  65 W12       29.90R WCI   3
FOND DU LAC    CLEAR     17   6  62 NW15      29.90R WCI   2
$$

WIZ022-050-052-041000-
EAST CENTRAL WISCONSIN

CITY           SKY/WX    TMP DP  RH WIND       PRES   REMARKS
STURGEON BAY     N/A     16   3  57 NW13      29.85R WCI   2
MANITOWOC      CLEAR     18   8  65 W8        29.87R WCI   8
SHEBOYGAN      CLEAR     19   7  59 W13G21    29.88R WCI   6
$$

LMZ563-521-522-541>543-041000-
LAKESHORE

STATION/POSITION TIME  TEMP    WIND        PRES    VSBY  WAVE
                       AIR SEA DIR/SP/G                  HT/PER
                 (UTC) (F)     (DEG/KT/KT) (MB)    (MI)  (FT/S)
SHEBOYGAN LKSHOR 0900   21     280/ 11/ 15 1013.2R
KEWAUNEE LKSHORE 0900   19     290/ 12/ 18 1009.7R
NORTHPORT PIER   0900   18     290/  6/ 13 1009.5R
SISTER BAY LKSHO 0900   13     310/ 11/ 13   N/A
CHAMBERS ISLAND  0900   15     240/  4/ 12 1009.8S
MENOMINEE LKSHOR 0900   17     280/ 10     1011.0R
$$


USA.gov is the U.S. government's official web portal to all federal, state and local government web resources and services.